Year,Month,Day,Hour,Minute,Value (Times are PST for windgust in km/hr)
2012,12,03,00,02,6.40
2012,12,03,00,03,6.40
2012,12,03,00,05,1.60
2012,12,03,00,06,3.20
2012,12,03,00,12,1.60
2012,12,03,00,13,3.20
2012,12,03,00,14,4.80
2012,12,03,00,15,4.80
2012,12,03,00,16,1.60
2012,12,03,00,18,4.80
2012,12,03,00,19,3.20
2012,12,03,00,22,3.20
2012,12,03,00,23,1.60
2012,12,03,00,24,1.60
2012,12,03,00,30,3.20
2012,12,03,00,31,4.80
2012,12,03,00,32,4.80
2012,12,03,00,34,1.60
2012,12,03,00,37,3.20
2012,12,03,00,38,1.60
2012,12,03,00,39,1.60
2012,12,03,00,40,1.60
2012,12,03,00,41,3.20
2012,12,03,00,45,1.60
2012,12,03,00,46,1.60
2012,12,03,00,47,4.80
2012,12,03,00,48,3.20
2012,12,03,00,50,3.20
2012,12,03,00,51,4.80
2012,12,03,00,52,3.20
2012,12,03,00,53,3.20
2012,12,03,00,54,1.60
2012,12,03,00,55,3.20
2012,12,03,00,56,4.80
2012,12,03,00,57,3.20
2012,12,03,00,58,6.40
2012,12,03,00,59,4.80
2012,12,03,01,00,3.20
2012,12,03,01,01,1.60
2012,12,03,01,02,3.20
2012,12,03,01,03,1.60
2012,12,03,01,04,3.20
2012,12,03,01,05,3.20
2012,12,03,01,06,6.40
2012,12,03,01,07,6.40
2012,12,03,01,08,4.80
2012,12,03,01,10,1.60
2012,12,03,01,11,8.10
2012,12,03,01,12,14.50
2012,12,03,01,13,17.70
2012,12,03,01,14,14.50
2012,12,03,01,15,8.10
2012,12,03,01,16,4.80
2012,12,03,01,17,1.60
2012,12,03,01,18,1.60
2012,12,03,01,20,4.80
2012,12,03,01,21,8.10
2012,12,03,01,22,6.40
2012,12,03,01,23,6.40
2012,12,03,01,24,1.60
2012,12,03,01,25,3.20
2012,12,03,01,26,4.80
2012,12,03,01,27,4.80
2012,12,03,01,28,9.60
2012,12,03,01,29,8.10
2012,12,03,01,30,4.80
2012,12,03,01,31,6.40
2012,12,03,01,32,4.80
2012,12,03,01,33,3.20
2012,12,03,01,34,3.20
2012,12,03,01,35,19.30
2012,12,03,01,36,6.40
2012,12,03,01,37,9.60
2012,12,03,01,38,4.80
2012,12,03,01,39,4.80
2012,12,03,01,40,8.10
2012,12,03,01,41,9.60
2012,12,03,01,42,14.50
2012,12,03,01,43,6.40
2012,12,03,01,44,16.10
2012,12,03,01,45,17.70
2012,12,03,01,46,11.30
2012,12,03,01,47,30.60
2012,12,03,01,48,25.70
2012,12,03,01,49,27.40
2012,12,03,01,50,24.20
2012,12,03,01,51,24.20
2012,12,03,01,52,24.20
2012,12,03,01,53,24.20
2012,12,03,01,54,22.50
2012,12,03,01,55,24.20
2012,12,03,01,56,17.70
2012,12,03,01,57,14.50
2012,12,03,01,58,25.70
2012,12,03,01,59,19.30
2012,12,03,02,00,9.60
2012,12,03,02,01,9.60
2012,12,03,02,02,9.60
2012,12,03,02,03,14.50
2012,12,03,02,04,19.30
2012,12,03,02,05,17.70
2012,12,03,02,06,20.90
2012,12,03,02,07,11.30
2012,12,03,02,08,12.90
2012,12,03,02,09,17.70
2012,12,03,02,10,16.10
2012,12,03,02,11,14.50
2012,12,03,02,12,25.70
2012,12,03,02,13,27.40
2012,12,03,02,14,17.70
2012,12,03,02,15,24.20
2012,12,03,02,16,11.30
2012,12,03,02,17,19.30
2012,12,03,02,18,27.40
2012,12,03,02,19,17.70
2012,12,03,02,20,19.30
2012,12,03,02,21,22.50
2012,12,03,02,22,16.10
2012,12,03,02,23,22.50
2012,12,03,02,24,24.20
2012,12,03,02,25,33.80
2012,12,03,02,26,30.60
2012,12,03,02,27,11.30
2012,12,03,02,28,25.70
2012,12,03,02,29,24.20
2012,12,03,02,30,25.70
2012,12,03,02,31,29.00
2012,12,03,02,32,27.40
2012,12,03,02,33,14.50
2012,12,03,02,34,30.60
2012,12,03,02,35,24.20
2012,12,03,02,36,19.30
2012,12,03,02,37,17.70
2012,12,03,02,38,20.90
2012,12,03,02,39,24.20
2012,12,03,02,40,25.70
2012,12,03,02,41,30.60
2012,12,03,02,42,11.30
2012,12,03,02,43,24.20
2012,12,03,02,44,32.20
2012,12,03,02,45,24.20
2012,12,03,02,46,16.10
2012,12,03,02,47,14.50
2012,12,03,02,48,17.70
2012,12,03,02,49,16.10
2012,12,03,02,50,9.60
2012,12,03,02,51,17.70
2012,12,03,02,52,17.70
2012,12,03,02,53,16.10
2012,12,03,02,54,27.40
2012,12,03,02,55,25.70
2012,12,03,02,56,14.50
2012,12,03,02,57,9.60
2012,12,03,02,58,24.20
2012,12,03,02,59,25.70
2012,12,03,03,00,17.70
2012,12,03,03,01,14.50
2012,12,03,03,02,14.50
2012,12,03,03,03,20.90
2012,12,03,03,04,35.40
2012,12,03,03,05,22.50
2012,12,03,03,06,25.70
2012,12,03,03,07,27.40
2012,12,03,03,08,16.10
2012,12,03,03,09,16.10
2012,12,03,03,10,17.70
2012,12,03,03,11,11.30
2012,12,03,03,12,22.50
2012,12,03,03,13,22.50
2012,12,03,03,14,16.10
2012,12,03,03,15,20.90
2012,12,03,03,16,24.20
2012,12,03,03,17,16.10
2012,12,03,03,18,17.70
2012,12,03,03,19,24.20
2012,12,03,03,20,20.90
2012,12,03,03,21,17.70
2012,12,03,03,22,14.50
2012,12,03,03,23,16.10
2012,12,03,03,24,6.40
2012,12,03,03,25,6.40
2012,12,03,03,26,6.40
2012,12,03,03,27,17.70
2012,12,03,03,28,8.10
2012,12,03,03,29,8.10
2012,12,03,03,30,6.40
2012,12,03,03,31,11.30
2012,12,03,03,32,14.50
2012,12,03,03,33,6.40
2012,12,03,03,34,8.10
2012,12,03,03,35,6.40
2012,12,03,03,36,3.20
2012,12,03,03,37,6.40
2012,12,03,03,38,8.10
2012,12,03,03,39,8.10
2012,12,03,03,40,9.60
2012,12,03,03,41,6.40
2012,12,03,03,42,9.60
2012,12,03,03,43,6.40
2012,12,03,03,44,6.40
2012,12,03,03,45,6.40
2012,12,03,03,46,9.60
2012,12,03,03,47,8.10
2012,12,03,03,48,6.40
2012,12,03,03,49,4.80
2012,12,03,03,50,4.80
2012,12,03,03,51,4.80
2012,12,03,03,52,3.20
2012,12,03,03,53,9.60
2012,12,03,03,54,4.80
2012,12,03,03,55,1.60
2012,12,03,03,56,1.60
2012,12,03,03,57,3.20
2012,12,03,03,58,4.80
2012,12,03,03,59,3.20
2012,12,03,04,00,4.80
2012,12,03,04,01,4.80
2012,12,03,04,02,6.40
2012,12,03,04,03,6.40
2012,12,03,04,04,8.10
2012,12,03,04,05,6.40
2012,12,03,04,06,8.10
2012,12,03,04,07,8.10
2012,12,03,04,08,6.40
2012,12,03,04,10,1.60
2012,12,03,04,11,3.20
2012,12,03,04,12,3.20
2012,12,03,04,13,1.60
2012,12,03,04,14,1.60
2012,12,03,04,16,1.60
2012,12,03,04,17,3.20
2012,12,03,04,18,1.60
2012,12,03,04,21,1.60
2012,12,03,04,23,3.20
2012,12,03,04,24,4.80
2012,12,03,04,25,4.80
2012,12,03,04,26,1.60
2012,12,03,04,27,3.20
2012,12,03,04,28,4.80
2012,12,03,04,29,3.20
2012,12,03,04,30,4.80
2012,12,03,04,31,3.20
2012,12,03,04,32,6.40
2012,12,03,04,33,6.40
2012,12,03,04,34,8.10
2012,12,03,04,35,6.40
2012,12,03,04,36,3.20
2012,12,03,04,37,4.80
2012,12,03,04,38,6.40
2012,12,03,04,39,3.20
2012,12,03,04,40,1.60
2012,12,03,04,42,1.60
2012,12,03,04,44,3.20
2012,12,03,04,45,4.80
2012,12,03,04,46,4.80
2012,12,03,04,47,6.40
2012,12,03,04,48,6.40
2012,12,03,04,49,1.60
2012,12,03,04,52,1.60
2012,12,03,04,55,1.60
2012,12,03,04,56,1.60
2012,12,03,04,57,1.60
2012,12,03,04,59,4.80
2012,12,03,05,00,3.20
2012,12,03,05,01,4.80
2012,12,03,05,02,1.60
2012,12,03,05,03,4.80
2012,12,03,05,04,1.60
2012,12,03,05,05,3.20
2012,12,03,05,06,3.20
2012,12,03,05,07,1.60
2012,12,03,05,08,3.20
2012,12,03,05,09,1.60
2012,12,03,05,10,1.60
2012,12,03,05,11,3.20
2012,12,03,05,12,3.20
2012,12,03,05,13,4.80
2012,12,03,05,14,4.80
2012,12,03,05,15,4.80
2012,12,03,05,16,6.40
2012,12,03,05,17,4.80
2012,12,03,05,18,3.20
2012,12,03,05,19,9.60
2012,12,03,05,20,9.60
2012,12,03,05,21,6.40
2012,12,03,05,22,9.60
2012,12,03,05,23,4.80
2012,12,03,05,24,11.30
2012,12,03,05,25,9.60
2012,12,03,05,26,3.20
2012,12,03,05,27,14.50
2012,12,03,05,28,12.90
2012,12,03,05,29,14.50
2012,12,03,05,30,22.50
2012,12,03,05,31,19.30
2012,12,03,05,32,9.60
2012,12,03,05,33,14.50
2012,12,03,05,34,17.70
2012,12,03,05,35,14.50
2012,12,03,05,36,14.50
2012,12,03,05,37,17.70
2012,12,03,05,38,19.30
2012,12,03,05,39,11.30
2012,12,03,05,40,11.30
2012,12,03,05,41,17.70
2012,12,03,05,42,22.50
2012,12,03,05,43,19.30
2012,12,03,05,44,11.30
2012,12,03,05,45,8.10
2012,12,03,05,46,8.10
2012,12,03,05,47,16.10
2012,12,03,05,48,17.70
2012,12,03,05,49,12.90
2012,12,03,05,50,9.60
2012,12,03,05,51,4.80
2012,12,03,05,52,3.20
2012,12,03,05,53,4.80
2012,12,03,05,54,8.10
2012,12,03,05,55,9.60
2012,12,03,05,56,4.80
2012,12,03,05,57,3.20
2012,12,03,05,58,4.80
2012,12,03,05,59,6.40
2012,12,03,06,00,6.40
2012,12,03,06,01,8.10
2012,12,03,06,02,8.10
2012,12,03,06,03,6.40
2012,12,03,06,04,4.80
2012,12,03,06,05,4.80
2012,12,03,06,06,6.40
2012,12,03,06,07,4.80
2012,12,03,06,08,6.40
2012,12,03,06,09,11.30
2012,12,03,06,10,3.20
2012,12,03,06,11,3.20
2012,12,03,06,12,3.20
2012,12,03,06,13,4.80
2012,12,03,06,14,4.80
2012,12,03,06,15,3.20
2012,12,03,06,16,3.20
2012,12,03,06,17,3.20
2012,12,03,06,18,1.60
2012,12,03,06,19,1.60
2012,12,03,06,20,3.20
2012,12,03,06,21,3.20
2012,12,03,06,23,3.20
2012,12,03,06,24,3.20
2012,12,03,06,26,1.60
2012,12,03,06,27,3.20
2012,12,03,06,28,3.20
2012,12,03,06,29,3.20
2012,12,03,06,30,3.20
2012,12,03,06,31,3.20
2012,12,03,06,32,1.60
2012,12,03,06,33,3.20
2012,12,03,06,34,3.20
2012,12,03,06,35,3.20
2012,12,03,06,36,3.20
2012,12,03,06,37,1.60
2012,12,03,06,40,1.60
2012,12,03,06,41,1.60
2012,12,03,06,43,6.40
2012,12,03,06,44,4.80
2012,12,03,06,45,1.60
2012,12,03,06,49,8.10
2012,12,03,06,50,8.10
2012,12,03,06,54,1.60
2012,12,03,06,55,3.20
2012,12,03,07,05,1.60
2012,12,03,07,06,1.60
2012,12,03,07,15,1.60
2012,12,03,07,16,1.60
2012,12,03,07,19,3.20
2012,12,03,07,20,3.20
2012,12,03,07,21,1.60
2012,12,03,07,22,1.60
2012,12,03,07,36,1.60
2012,12,03,07,37,1.60
2012,12,03,07,48,1.60
2012,12,03,07,49,3.20
2012,12,03,07,50,3.20
2012,12,03,07,51,1.60
2012,12,03,08,05,3.20
2012,12,03,08,06,3.20
2012,12,03,08,07,1.60
2012,12,03,08,09,1.60
2012,12,03,08,13,1.60
2012,12,03,08,14,1.60
2012,12,03,08,15,3.20
2012,12,03,08,16,3.20
2012,12,03,08,17,1.60
2012,12,03,08,25,1.60
2012,12,03,08,31,1.60
2012,12,03,08,38,1.60
2012,12,03,08,39,1.60
2012,12,03,08,42,1.60
2012,12,03,08,44,3.20
2012,12,03,08,45,3.20
2012,12,03,08,58,1.60
2012,12,03,08,59,3.20
2012,12,03,09,00,3.20
2012,12,03,09,01,1.60
2012,12,03,09,02,1.60
2012,12,03,09,03,3.20
2012,12,03,09,04,1.60
2012,12,03,09,05,3.20
2012,12,03,09,07,3.20
2012,12,03,09,08,3.20
2012,12,03,09,09,3.20
2012,12,03,09,10,4.80
2012,12,03,09,11,8.10
2012,12,03,09,12,8.10
2012,12,03,09,13,4.80
2012,12,03,09,14,1.60
2012,12,03,09,16,3.20
2012,12,03,09,17,3.20
2012,12,03,09,19,3.20
2012,12,03,09,20,3.20
2012,12,03,09,21,1.60
2012,12,03,09,22,3.20
2012,12,03,09,23,1.60
2012,12,03,09,25,3.20
2012,12,03,09,26,3.20
2012,12,03,09,27,3.20
2012,12,03,09,28,3.20
2012,12,03,09,29,1.60
2012,12,03,09,33,1.60
2012,12,03,09,34,3.20
2012,12,03,09,35,3.20
2012,12,03,09,36,3.20
2012,12,03,09,37,3.20
2012,12,03,09,38,3.20
2012,12,03,09,40,1.60
2012,12,03,09,41,1.60
2012,12,03,09,44,1.60
2012,12,03,09,45,1.60
2012,12,03,09,49,1.60
2012,12,03,09,50,1.60
2012,12,03,09,51,1.60
2012,12,03,09,54,1.60
2012,12,03,09,55,1.60
2012,12,03,09,56,3.20
2012,12,03,09,57,3.20
2012,12,03,09,58,3.20
2012,12,03,09,59,3.20
2012,12,03,10,00,3.20
2012,12,03,10,01,3.20
2012,12,03,10,02,1.60
2012,12,03,10,03,4.80
2012,12,03,10,04,3.20
2012,12,03,10,05,3.20
2012,12,03,10,07,1.60
2012,12,03,10,08,3.20
2012,12,03,10,09,4.80
2012,12,03,10,10,4.80
2012,12,03,10,11,6.40
2012,12,03,10,12,4.80
2012,12,03,10,13,8.10
2012,12,03,10,14,4.80
2012,12,03,10,15,8.10
2012,12,03,10,16,8.10
2012,12,03,10,17,6.40
2012,12,03,10,18,8.10
2012,12,03,10,19,6.40
2012,12,03,10,20,6.40
2012,12,03,10,21,6.40
2012,12,03,10,22,8.10
2012,12,03,10,23,6.40
2012,12,03,10,24,4.80
2012,12,03,10,25,6.40
2012,12,03,10,26,8.10
2012,12,03,10,27,4.80
2012,12,03,10,28,8.10
2012,12,03,10,29,8.10
2012,12,03,10,30,9.60
2012,12,03,10,31,11.30
2012,12,03,10,32,16.10
2012,12,03,10,33,12.90
2012,12,03,10,34,8.10
2012,12,03,10,35,9.60
2012,12,03,10,36,11.30
2012,12,03,10,37,16.10
2012,12,03,10,38,22.50
2012,12,03,10,39,11.30
2012,12,03,10,40,14.50
2012,12,03,10,41,19.30
2012,12,03,10,42,16.10
2012,12,03,10,43,19.30
2012,12,03,10,44,14.50
2012,12,03,10,45,14.50
2012,12,03,10,46,17.70
2012,12,03,10,47,16.10
2012,12,03,10,48,14.50
2012,12,03,10,49,16.10
2012,12,03,10,50,16.10
2012,12,03,10,51,11.30
2012,12,03,10,52,16.10
2012,12,03,10,53,11.30
2012,12,03,10,54,8.10
2012,12,03,10,55,6.40
2012,12,03,10,56,4.80
2012,12,03,10,57,6.40
2012,12,03,10,58,6.40
2012,12,03,10,59,3.20
2012,12,03,11,00,3.20
2012,12,03,11,01,4.80
2012,12,03,11,02,3.20
2012,12,03,11,03,4.80
2012,12,03,11,04,3.20
2012,12,03,11,05,1.60
2012,12,03,11,06,3.20
2012,12,03,11,07,1.60
2012,12,03,11,08,3.20
2012,12,03,11,09,3.20
2012,12,03,11,10,1.60
2012,12,03,11,11,3.20
2012,12,03,11,12,4.80
2012,12,03,11,13,6.40
2012,12,03,11,14,6.40
2012,12,03,11,15,8.10
2012,12,03,11,16,8.10
2012,12,03,11,17,8.10
2012,12,03,11,18,11.30
2012,12,03,11,19,11.30
2012,12,03,11,20,8.10
2012,12,03,11,21,11.30
2012,12,03,11,22,4.80
2012,12,03,11,23,8.10
2012,12,03,11,24,12.90
2012,12,03,11,25,8.10
2012,12,03,11,26,6.40
2012,12,03,11,27,8.10
2012,12,03,11,28,8.10
2012,12,03,11,29,6.40
2012,12,03,11,30,8.10
2012,12,03,11,31,9.60
2012,12,03,11,32,11.30
2012,12,03,11,33,16.10
2012,12,03,11,34,11.30
2012,12,03,11,35,11.30
2012,12,03,11,36,9.60
2012,12,03,11,37,9.60
2012,12,03,11,38,9.60
2012,12,03,11,39,9.60
2012,12,03,11,40,4.80
2012,12,03,11,41,6.40
2012,12,03,11,42,9.60
2012,12,03,11,43,11.30
2012,12,03,11,44,11.30
2012,12,03,11,45,6.40
2012,12,03,11,46,8.10
2012,12,03,11,47,8.10
2012,12,03,11,48,11.30
2012,12,03,11,49,9.60
2012,12,03,11,50,9.60
2012,12,03,11,51,4.80
2012,12,03,11,52,8.10
2012,12,03,11,53,4.80
2012,12,03,11,54,6.40
2012,12,03,11,55,6.40
2012,12,03,11,56,6.40
2012,12,03,11,57,4.80
2012,12,03,11,58,3.20
2012,12,03,11,59,3.20
2012,12,03,12,00,6.40
2012,12,03,12,01,4.80
2012,12,03,12,02,4.80
2012,12,03,12,03,1.60
2012,12,03,12,04,4.80
2012,12,03,12,05,3.20
2012,12,03,12,06,3.20
2012,12,03,12,07,3.20
2012,12,03,12,08,4.80
2012,12,03,12,09,3.20
2012,12,03,12,10,6.40
2012,12,03,12,11,11.30
2012,12,03,12,12,11.30
2012,12,03,12,13,11.30
2012,12,03,12,14,11.30
2012,12,03,12,15,11.30
2012,12,03,12,16,9.60
2012,12,03,12,17,8.10
2012,12,03,12,18,9.60
2012,12,03,12,19,6.40
2012,12,03,12,20,6.40
2012,12,03,12,21,6.40
2012,12,03,12,22,6.40
2012,12,03,12,23,6.40
2012,12,03,12,24,9.60
2012,12,03,12,25,9.60
2012,12,03,12,26,11.30
2012,12,03,12,27,6.40
2012,12,03,12,28,8.10
2012,12,03,12,29,8.10
2012,12,03,12,30,11.30
2012,12,03,12,31,8.10
2012,12,03,12,32,4.80
2012,12,03,12,33,9.60
2012,12,03,12,34,8.10
2012,12,03,12,35,4.80
2012,12,03,12,36,9.60
2012,12,03,12,37,9.60
2012,12,03,12,38,3.20
2012,12,03,12,39,4.80
2012,12,03,12,40,6.40
2012,12,03,12,41,4.80
2012,12,03,12,42,8.10
2012,12,03,12,43,8.10
2012,12,03,12,44,4.80
2012,12,03,12,45,8.10
2012,12,03,12,46,9.60
2012,12,03,12,47,8.10
2012,12,03,12,48,6.40
2012,12,03,12,49,8.10
2012,12,03,12,50,8.10
2012,12,03,12,51,8.10
2012,12,03,12,52,4.80
2012,12,03,12,53,11.30
2012,12,03,12,54,11.30
2012,12,03,12,55,11.30
2012,12,03,12,56,6.40
2012,12,03,12,57,4.80
2012,12,03,12,58,11.30
2012,12,03,12,59,11.30
2012,12,03,13,00,8.10
2012,12,03,13,01,8.10
2012,12,03,13,02,6.40
2012,12,03,13,03,9.60
2012,12,03,13,04,9.60
2012,12,03,13,05,8.10
2012,12,03,13,06,6.40
2012,12,03,13,07,3.20
2012,12,03,13,08,16.10
2012,12,03,13,09,9.60
2012,12,03,13,10,11.30
2012,12,03,13,11,11.30
2012,12,03,13,12,8.10
2012,12,03,13,13,11.30
2012,12,03,13,14,11.30
2012,12,03,13,15,11.30
2012,12,03,13,16,11.30
2012,12,03,13,17,8.10
2012,12,03,13,18,12.90
2012,12,03,13,19,11.30
2012,12,03,13,20,16.10
2012,12,03,13,21,9.60
2012,12,03,13,22,9.60
2012,12,03,13,23,9.60
2012,12,03,13,24,14.50
2012,12,03,13,25,11.30
2012,12,03,13,26,14.50
2012,12,03,13,27,14.50
2012,12,03,13,28,14.50
2012,12,03,13,29,14.50
2012,12,03,13,30,14.50
2012,12,03,13,31,19.30
2012,12,03,13,32,11.30
2012,12,03,13,33,14.50
2012,12,03,13,34,11.30
2012,12,03,13,35,16.10
2012,12,03,13,36,9.60
2012,12,03,13,37,11.30
2012,12,03,13,38,12.90
2012,12,03,13,39,11.30
2012,12,03,13,40,17.70
2012,12,03,13,41,11.30
2012,12,03,13,42,14.50
2012,12,03,13,43,8.10
2012,12,03,13,44,8.10
2012,12,03,13,45,11.30
2012,12,03,13,46,16.10
2012,12,03,13,47,11.30
2012,12,03,13,48,14.50
2012,12,03,13,49,9.60
2012,12,03,13,50,6.40
2012,12,03,13,51,16.10
2012,12,03,13,52,14.50
2012,12,03,13,53,12.90
2012,12,03,13,54,17.70
2012,12,03,13,55,14.50
2012,12,03,13,56,17.70
2012,12,03,13,57,17.70
2012,12,03,13,58,11.30
2012,12,03,13,59,8.10
2012,12,03,14,00,6.40
2012,12,03,14,01,11.30
2012,12,03,14,02,12.90
2012,12,03,14,03,9.60
2012,12,03,14,04,11.30
2012,12,03,14,05,8.10
2012,12,03,14,06,14.50
2012,12,03,14,07,8.10
2012,12,03,14,08,17.70
2012,12,03,14,09,12.90
2012,12,03,14,10,16.10
2012,12,03,14,11,16.10
2012,12,03,14,12,16.10
2012,12,03,14,13,12.90
2012,12,03,14,14,8.10
2012,12,03,14,15,12.90
2012,12,03,14,16,11.30
2012,12,03,14,17,19.30
2012,12,03,14,18,17.70
2012,12,03,14,19,17.70
2012,12,03,14,20,17.70
2012,12,03,14,21,11.30
2012,12,03,14,22,16.10
2012,12,03,14,23,17.70
2012,12,03,14,24,19.30
2012,12,03,14,25,19.30
2012,12,03,14,26,17.70
2012,12,03,14,27,16.10
2012,12,03,14,28,17.70
2012,12,03,14,29,16.10
2012,12,03,14,30,19.30
2012,12,03,14,31,14.50
2012,12,03,14,32,16.10
2012,12,03,14,33,11.30
2012,12,03,14,34,17.70
2012,12,03,14,35,16.10
2012,12,03,14,36,14.50
2012,12,03,14,37,16.10
2012,12,03,14,38,9.60
2012,12,03,14,39,8.10
2012,12,03,14,40,11.30
2012,12,03,14,41,11.30
2012,12,03,14,42,11.30
2012,12,03,14,43,11.30
2012,12,03,14,44,14.50
2012,12,03,14,45,16.10
2012,12,03,14,46,16.10
2012,12,03,14,47,11.30
2012,12,03,14,48,8.10
2012,12,03,14,49,4.80
2012,12,03,14,50,11.30
2012,12,03,14,51,9.60
2012,12,03,14,52,14.50
2012,12,03,14,53,14.50
2012,12,03,14,54,9.60
2012,12,03,14,55,9.60
2012,12,03,14,56,16.10
2012,12,03,14,57,11.30
2012,12,03,14,58,9.60
2012,12,03,14,59,11.30
2012,12,03,15,00,11.30
2012,12,03,15,01,17.70
2012,12,03,15,02,17.70
2012,12,03,15,03,17.70
2012,12,03,15,04,14.50
2012,12,03,15,05,11.30
2012,12,03,15,06,11.30
2012,12,03,15,07,19.30
2012,12,03,15,08,17.70
2012,12,03,15,09,11.30
2012,12,03,15,10,14.50
2012,12,03,15,11,17.70
2012,12,03,15,12,19.30
2012,12,03,15,13,16.10
2012,12,03,15,14,19.30
2012,12,03,15,15,17.70
2012,12,03,15,16,20.90
2012,12,03,15,17,19.30
2012,12,03,15,18,9.60
2012,12,03,15,19,14.50
2012,12,03,15,20,19.30
2012,12,03,15,21,22.50
2012,12,03,15,22,24.20
2012,12,03,15,23,17.70
2012,12,03,15,24,24.20
2012,12,03,15,25,20.90
2012,12,03,15,26,19.30
2012,12,03,15,27,17.70
2012,12,03,15,28,16.10
2012,12,03,15,29,20.90
2012,12,03,15,30,17.70
2012,12,03,15,31,17.70
2012,12,03,15,32,20.90
2012,12,03,15,33,17.70
2012,12,03,15,34,16.10
2012,12,03,15,35,17.70
2012,12,03,15,36,9.60
2012,12,03,15,37,12.90
2012,12,03,15,38,9.60
2012,12,03,15,39,14.50
2012,12,03,15,40,16.10
2012,12,03,15,41,14.50
2012,12,03,15,42,14.50
2012,12,03,15,43,16.10
2012,12,03,15,44,11.30
2012,12,03,15,45,20.90
2012,12,03,15,46,14.50
2012,12,03,15,47,14.50
2012,12,03,15,48,14.50
2012,12,03,15,49,14.50
2012,12,03,15,50,17.70
2012,12,03,15,51,11.30
2012,12,03,15,52,16.10
2012,12,03,15,53,14.50
2012,12,03,15,54,12.90
2012,12,03,15,55,12.90
2012,12,03,15,56,9.60
2012,12,03,15,57,14.50
2012,12,03,15,58,9.60
2012,12,03,15,59,9.60
2012,12,03,16,00,9.60
2012,12,03,16,01,14.50
2012,12,03,16,02,14.50
2012,12,03,16,03,19.30
2012,12,03,16,04,17.70
2012,12,03,16,05,16.10
2012,12,03,16,06,14.50
2012,12,03,16,07,14.50
2012,12,03,16,08,17.70
2012,12,03,16,09,11.30
2012,12,03,16,10,16.10
2012,12,03,16,11,14.50
2012,12,03,16,12,16.10
2012,12,03,16,13,14.50
2012,12,03,16,14,14.50
2012,12,03,16,15,14.50
2012,12,03,16,16,11.30
2012,12,03,16,17,14.50
2012,12,03,16,18,11.30
2012,12,03,16,19,16.10
2012,12,03,16,20,11.30
2012,12,03,16,21,8.10
2012,12,03,16,22,9.60
2012,12,03,16,23,14.50
2012,12,03,16,24,14.50
2012,12,03,16,25,9.60
2012,12,03,16,26,9.60
2012,12,03,16,27,16.10
2012,12,03,16,28,9.60
2012,12,03,16,29,11.30
2012,12,03,16,30,9.60
2012,12,03,16,31,17.70
2012,12,03,16,32,11.30
2012,12,03,16,33,9.60
2012,12,03,16,34,11.30
2012,12,03,16,35,11.30
2012,12,03,16,36,12.90
2012,12,03,16,37,8.10
2012,12,03,16,38,8.10
2012,12,03,16,39,14.50
2012,12,03,16,40,9.60
2012,12,03,16,41,14.50
2012,12,03,16,42,11.30
2012,12,03,16,43,17.70
2012,12,03,16,44,14.50
2012,12,03,16,45,14.50
2012,12,03,16,46,11.30
2012,12,03,16,47,9.60
2012,12,03,16,48,16.10
2012,12,03,16,49,11.30
2012,12,03,16,50,11.30
2012,12,03,16,51,16.10
2012,12,03,16,52,14.50
2012,12,03,16,53,16.10
2012,12,03,16,54,9.60
2012,12,03,16,55,9.60
2012,12,03,16,56,14.50
2012,12,03,16,57,16.10
2012,12,03,16,58,8.10
2012,12,03,16,59,11.30
2012,12,03,17,00,11.30
2012,12,03,17,01,11.30
2012,12,03,17,02,11.30
2012,12,03,17,03,14.50
2012,12,03,17,04,14.50
2012,12,03,17,05,11.30
2012,12,03,17,06,12.90
2012,12,03,17,07,12.90
2012,12,03,17,08,9.60
2012,12,03,17,09,11.30
2012,12,03,17,10,9.60
2012,12,03,17,11,14.50
2012,12,03,17,12,14.50
2012,12,03,17,13,16.10
2012,12,03,17,14,16.10
2012,12,03,17,15,17.70
2012,12,03,17,16,14.50
2012,12,03,17,17,14.50
2012,12,03,17,18,9.60
2012,12,03,17,19,12.90
2012,12,03,17,20,14.50
2012,12,03,17,21,19.30
2012,12,03,17,22,9.60
2012,12,03,17,23,11.30
2012,12,03,17,24,14.50
2012,12,03,17,25,17.70
2012,12,03,17,26,19.30
2012,12,03,17,27,19.30
2012,12,03,17,28,20.90
2012,12,03,17,29,20.90
2012,12,03,17,30,16.10
2012,12,03,17,31,14.50
2012,12,03,17,32,19.30
2012,12,03,17,33,19.30
2012,12,03,17,34,19.30
2012,12,03,17,35,11.30
2012,12,03,17,36,14.50
2012,12,03,17,37,16.10
2012,12,03,17,38,17.70
2012,12,03,17,39,20.90
2012,12,03,17,40,19.30
2012,12,03,17,41,11.30
2012,12,03,17,42,19.30
2012,12,03,17,43,16.10
2012,12,03,17,44,16.10
2012,12,03,17,45,17.70
2012,12,03,17,46,19.30
2012,12,03,17,47,19.30
2012,12,03,17,48,14.50
2012,12,03,17,49,19.30
2012,12,03,17,50,9.60
2012,12,03,17,51,17.70
2012,12,03,17,52,14.50
2012,12,03,17,53,14.50
2012,12,03,17,54,16.10
2012,12,03,17,55,11.30
2012,12,03,17,56,11.30
2012,12,03,17,57,17.70
2012,12,03,17,58,22.50
2012,12,03,17,59,16.10
2012,12,03,18,00,19.30
2012,12,03,18,01,11.30
2012,12,03,18,02,11.30
2012,12,03,18,03,19.30
2012,12,03,18,04,11.30
2012,12,03,18,05,12.90
2012,12,03,18,06,17.70
2012,12,03,18,07,19.30
2012,12,03,18,08,17.70
2012,12,03,18,09,14.50
2012,12,03,18,10,16.10
2012,12,03,18,11,11.30
2012,12,03,18,12,19.30
2012,12,03,18,13,19.30
2012,12,03,18,14,17.70
2012,12,03,18,15,16.10
2012,12,03,18,16,11.30
2012,12,03,18,17,11.30
2012,12,03,18,18,14.50
2012,12,03,18,19,16.10
2012,12,03,18,20,11.30
2012,12,03,18,21,16.10
2012,12,03,18,22,20.90
2012,12,03,18,23,14.50
2012,12,03,18,24,12.90
2012,12,03,18,25,14.50
2012,12,03,18,26,11.30
2012,12,03,18,27,16.10
2012,12,03,18,28,14.50
2012,12,03,18,29,14.50
2012,12,03,18,30,9.60
2012,12,03,18,31,8.10
2012,12,03,18,32,14.50
2012,12,03,18,33,11.30
2012,12,03,18,34,9.60
2012,12,03,18,35,8.10
2012,12,03,18,36,8.10
2012,12,03,18,37,6.40
2012,12,03,18,38,4.80
2012,12,03,18,39,4.80
2012,12,03,18,40,3.20
2012,12,03,18,41,3.20
2012,12,03,18,42,3.20
2012,12,03,18,43,3.20
2012,12,03,18,44,1.60
2012,12,03,18,48,3.20
2012,12,03,18,49,1.60
2012,12,03,18,50,4.80
2012,12,03,18,51,3.20
2012,12,03,18,52,4.80
2012,12,03,18,53,1.60
2012,12,03,18,54,1.60
2012,12,03,18,55,1.60
2012,12,03,18,56,3.20
2012,12,03,18,57,3.20
2012,12,03,18,58,3.20
2012,12,03,18,59,3.20
2012,12,03,19,00,3.20
2012,12,03,19,01,4.80
2012,12,03,19,02,3.20
2012,12,03,19,03,3.20
2012,12,03,19,04,3.20
2012,12,03,19,05,4.80
2012,12,03,19,06,3.20
2012,12,03,19,07,4.80
2012,12,03,19,08,4.80
2012,12,03,19,09,3.20
2012,12,03,19,10,3.20
2012,12,03,19,11,3.20
2012,12,03,19,12,4.80
2012,12,03,19,13,3.20
2012,12,03,19,14,4.80
2012,12,03,19,15,6.40
2012,12,03,19,16,8.10
2012,12,03,19,17,8.10
2012,12,03,19,18,6.40
2012,12,03,19,19,4.80
2012,12,03,19,20,3.20
2012,12,03,19,21,4.80
2012,12,03,19,22,9.60
2012,12,03,19,23,4.80
2012,12,03,19,24,12.90
2012,12,03,19,25,14.50
2012,12,03,19,26,9.60
2012,12,03,19,27,9.60
2012,12,03,19,28,9.60
2012,12,03,19,29,9.60
2012,12,03,19,30,12.90
2012,12,03,19,31,9.60
2012,12,03,19,32,9.60
2012,12,03,19,33,11.30
2012,12,03,19,34,11.30
2012,12,03,19,35,11.30
2012,12,03,19,36,14.50
2012,12,03,19,37,11.30
2012,12,03,19,38,9.60
2012,12,03,19,39,8.10
2012,12,03,19,40,16.10
2012,12,03,19,41,16.10
2012,12,03,19,42,16.10
2012,12,03,19,43,16.10
2012,12,03,19,44,12.90
2012,12,03,19,45,16.10
2012,12,03,19,46,11.30
2012,12,03,19,47,9.60
2012,12,03,19,48,11.30
2012,12,03,19,49,11.30
2012,12,03,19,50,9.60
2012,12,03,19,51,9.60
2012,12,03,19,52,8.10
2012,12,03,19,53,8.10
2012,12,03,19,54,6.40
2012,12,03,19,55,6.40
2012,12,03,19,56,8.10
2012,12,03,19,57,9.60
2012,12,03,19,58,6.40
2012,12,03,19,59,6.40
2012,12,03,20,00,11.30
2012,12,03,20,01,6.40
2012,12,03,20,02,6.40
2012,12,03,20,03,6.40
2012,12,03,20,04,4.80
2012,12,03,20,05,6.40
2012,12,03,20,06,3.20
2012,12,03,20,07,1.60
2012,12,03,20,08,6.40
2012,12,03,20,09,9.60
2012,12,03,20,10,4.80
2012,12,03,20,11,9.60
2012,12,03,20,12,6.40
2012,12,03,20,13,4.80
2012,12,03,20,14,4.80
2012,12,03,20,15,4.80
2012,12,03,20,16,4.80
2012,12,03,20,17,6.40
2012,12,03,20,18,4.80
2012,12,03,20,19,4.80
2012,12,03,20,20,8.10
2012,12,03,20,21,6.40
2012,12,03,20,22,11.30
2012,12,03,20,23,11.30
2012,12,03,20,24,19.30